Golf, Illinois
Current Conditions -  °F | °C
As of 3:52 AM on Tuesday 21 Oct 2014 (Local Time) from KPWK Reporting Station
Overcast Overcast  
Wind Chill: 50°   Ceiling: 5000
Heat Index: 50°   Visibility: 10mi
Dew Point: 41°   Wind: 8mph
Humidity: 71%   Direction: 360°N
Pressure: 30.04"   Gusts: NA
Location:  42.06°N, 87.79°W
Report Text: KPWK 210852Z AUTO 36007KT 10SM OVC050 10/05 A3004 RMK AO2 SLP173 T01000050 51007
Loading
Personal Weather Stations






























Interactive Weather Map
Tropical Storm Tracking
New forecast layout! Learn more

10-Day Weather Forecast

Advertisements
Track Severe Weather on mobile